Weather History for BGBW - April, 2014

Change the Weather History Date:

Friday, April 11, 2014

  Actual Average Record
Temperature  
Mean Temperature 29 °F -  
Max Temperature 31 °F 43 °F - ()
Min Temperature 27 °F 29 °F - ()
Degree Days  
Heating Degree Days 36    
Moisture  
Dew Point 26 °F    
Average Humidity 82    
Maximum Humidity 100    
Minimum Humidity 55    
Precipitation  
Precipitation 0.00 in 0.05 in - ()
Sea Level Pressure  
Sea Level Pressure 29.45 in    
Wind  
Wind Speed 6 mph ()    
Max Wind Speed 13 mph    
Max Gust Speed -    
Visibility 3.3 miles    
Events Rain , Snow    
T = Trace of Precipitation, MM = Missing Value Source: Averaged Metar Reports

Daily Weather History Graph

Daily Weather History Graph

Search for Another Location

Airport or City:

Trip Planner

Search our weather history database for the weather conditions in past years. The results will help you decide how hot, cold, wet, or windy it might be!

Date:

Astronomy

Apr. 11, 2014 Rise Set
Actual Time 5:53 AM WGST 8:13 PM WGST
Civil Twilight 5:06 AM WGST 9:00 PM WGST
Nautical Twilight 4:04 AM WGST 10:03 PM WGST
Astronomical Twilight 2:39 AM WGST 11:31 PM WGST
Moon 3:53 PM WGST (4/11) 4:44 AM WGST (4/11)
Length of Visible Light 15h 53m
Length of Day
14h 19m
Waxing Gibbous, 86% of the Moon is Illuminated
Apr 11
Waxing Gibbous
Apr 15
Full
Apr 22
Last Quarter
Apr 29
New
May 7
First Quarter

Hourly Weather History & Observations

Time (WGST) Temp. Windchill Dew Point Humidity Pressure Visibility Wind Dir Wind Speed Gust Speed Precip Events Conditions
12:00 AM 32 °F - 29 °F 86% 29.24 in 28 mi WSW 9.2 mph - - Rain Light Rain Showers
1:00 AM 31 °F - 28 °F 85% 29.25 in 4 mi SW 8.1 mph - - Rain Light Freezing Rain
2:00 AM 31 °F - 28 °F 85% 29.26 in 2 mi SW 6.9 mph - - Snow Light Snow Showers
3:00 AM 31 °F - 28 °F 85% 29.28 in 2 mi SW 6.9 mph - - Snow Light Snow
4:00 AM 31 °F - 29 °F 87% 29.29 in 1 mi SW 3.5 mph - - Snow Light Snow
5:00 AM 31 °F - 29 °F 88% 29.31 in 1 mi South 1.2 mph - - Snow Light Snow
5:50 AM 30.2 °F - 28.4 °F 93% 29.33 in 1.9 mi SW 2.3 mph - N/A Snow Light Snow
6:00 AM 31 °F - 29 °F 91% 29.34 in 1 mi WSW 4.6 mph - - Snow Light Snow
6:50 AM 30.2 °F 23.4 °F 30.2 °F 100% 29.33 in 3.1 mi SW 6.9 mph - N/A Snow Light Snow
7:00 AM 30 °F - 29 °F 95% 29.36 in 1 mi WSW 5.8 mph - -   Light Ice Pellets
7:50 AM 30.2 °F 21.9 °F 28.4 °F 93% 29.36 in 3.7 mi West 9.2 mph - N/A Snow Light Snow
8:00 AM 30 °F - 29 °F 96% 29.39 in 1 mi West 9.2 mph - -   Light Ice Pellets
8:50 AM 30.2 °F 22.6 °F 26.6 °F 86% 29.42 in 5.0 mi WSW 8.1 mph - N/A Snow Light Snow
9:00 AM 29 °F - 27 °F 88% 29.42 in 1 mi WSW 9.2 mph - - Snow Light Snow
9:50 AM 30.2 °F 20.8 °F 28.4 °F 93% 29.44 in 0.7 mi SW 11.5 mph - N/A Snow Light Freezing Rain
10:00 AM 29 °F - 27 °F 88% 29.45 in 1 mi SW 10.4 mph - -   Light Ice Pellets
10:50 AM 28.4 °F 19.7 °F 26.6 °F 93% 29.47 in 3.7 mi West 9.2 mph - N/A Snow Light Snow Showers
11:00 AM 29 °F - 26 °F 82% 29.48 in 1 mi WSW 8.1 mph - - Snow Light Snow
11:50 AM 30.2 °F 21.3 °F 26.6 °F 86% 29.47 in 6.2 mi SW 10.4 mph - N/A Snow Light Snow
12:00 PM 29 °F - 24 °F 75% 29.50 in 3 mi SW 10.4 mph - - Snow Light Snow
12:50 PM 30.2 °F 22.6 °F 24.8 °F 80% 29.50 in 6.2 mi West 8.1 mph - N/A Snow Light Snow
1:00 PM 30 °F - 23 °F 67% 29.52 in 4 mi West 6.9 mph - - Snow Light Snow
1:50 PM 30.2 °F 26.7 °F 23.0 °F 75% 29.50 in 6.2 mi WSW 3.5 mph - N/A Snow Light Snow
2:00 PM 29 °F - 22 °F 67% 29.52 in 1 mi WSW 4.6 mph - - Snow Light Snow
2:50 PM 30.2 °F 26.7 °F 24.8 °F 80% 29.50 in 6.2 mi NE 3.5 mph - N/A Snow Light Snow
3:00 PM 30 °F - 24 °F 69%  in 4 mi NE 3.5 mph - - Snow Light Snow
3:50 PM 30.2 °F 25.4 °F 21.2 °F 69% 29.53 in 6.2 mi WSW 4.6 mph - N/A Snow Light Snow
4:00 PM 30 °F - 21 °F 58% 29.55 in 6 mi SW 6.9 mph - - Snow Light Snow Showers
4:50 PM 30.2 °F 23.4 °F 23.0 °F 75% 29.53 in 2.2 mi WSW 6.9 mph - N/A Snow Snow Showers
5:00 PM 28 °F - 23 °F 76% 29.56 in 1 mi SW 9.2 mph - - Snow Light Snow
5:50 PM 28.4 °F 21.2 °F 24.8 °F 86% 29.56 in 1.2 mi WSW 6.9 mph - N/A Snow Snow Showers
6:00 PM 28 °F - 25 °F 84% 29.57 in 1 mi WSW 5.8 mph - - Snow Light Snow
7:00 PM 27 °F - 24 °F 86% 29.57 in 2 mi WNW 1.2 mph - - Snow Light Snow
8:00 PM 27 °F - 25 °F 88% 29.57 in 7 mi East 3.5 mph - - Rain Light Freezing Drizzle
9:00 PM 27 °F - 23 °F 79% 29.57 in 16 mi East 4.6 mph - -   Light Freezing Rain
10:00 PM 28 °F - 18 °F 56% 29.56 in 28 mi ENE 2.3 mph - -   Overcast
11:00 PM 28 °F - 18 °F 55% 29.54 in 25 mi ENE 12.7 mph - -   Overcast